Location: Killam
(52.7910°N, 111.8608°W)
Time: 06:14:21
(UTC+00:00)

METEOR M2 - Pass Details

Date: 14 March 2026
Orbit: 817 x 824 km, 98.5° (Epoch: 14 April)

Event Time Altitude Azimuth Distance (km) Brightness Sun altitude
Rises 11:45:09 0° 17° (NNE) 3,374 ? -18.4°
Reaches altitude 10° 11:47:33 10° 20° (NNE) 2,437 ? -18.1°
Maximum altitude 11:52:55 64° 102° (ESE) 916 ? -17.3°
Drops below altitude 10° 11:58:14 10° 184° (S) 2,419 ? -16.6°
Sets 12:00:36 0° 187° (S) 3,347 ? -16.2°
